Location: *
(55.5817°S, 142.4781°W)
Time: 06:33:14
(UTC+00:00)

SL-24 R/B - Pass Details

Date: 29 April 2025
Orbit: 501 x 982 km, 97.4° (Epoch: 23 May)

Event Time Altitude Azimuth Distance (km) Brightness Sun altitude
Rises 14:53:52 0° 24° (NNE) 2,621 7.6 -16.8°
Reaches altitude 10° 14:55:54 10° 27° (NNE) 1,759 6.8 -16.5°
Maximum altitude 14:59:37 66° 108° (ESE) 605 4.2 -15.9°
Drops below altitude 10° 15:03:42 10° 190° (S) 1,929 6.5 -15.4°
Sets 15:06:00 0° 192° (SSW) 2,903 7.3 -15.0°
